Time,TemperatureF,DewpointF,PressureIn,WindDirection,WindDirectionDegrees,WindSpeedMPH,WindSpeedGustMPH,Humidity,HourlyPrecipIn,Conditions,Clouds,dailyrainin,SoftwareType,DateUTC
2013-01-25 00:16:00,0.6,-11.0,30.31,West,276,11.0,16.0,59,0.00,,,0.00,weatherlink.com 1.10,2013-01-25 05:16:00,
2013-01-25 00:31:00,0.3,-10.0,30.30,West,276,6.0,16.0,61,0.00,,,0.00,weatherlink.com 1.10,2013-01-25 05:31:00,
2013-01-25 00:46:00,-0.1,-10.0,30.30,NNW,335,3.0,14.0,63,0.00,,,0.00,weatherlink.com 1.10,2013-01-25 05:46:00,
2013-01-25 01:01:00,-0.1,-9.0,30.31,WNW,295,6.0,16.0,65,0.00,,,0.00,weatherlink.com 1.10,2013-01-25 06:01:00,
2013-01-25 01:16:00,-0.3,-10.0,30.30,NW,321,7.0,14.0,65,0.00,,,0.00,weatherlink.com 1.10,2013-01-25 06:16:00,
2013-01-25 01:31:00,-0.5,-9.0,30.32,NNW,340,4.0,16.0,66,0.00,,,0.00,weatherlink.com 1.10,2013-01-25 06:31:00,
2013-01-25 01:47:00,-0.7,-9.0,30.32,NW,308,11.0,16.0,67,0.00,,,0.00,weatherlink.com 1.10,2013-01-25 06:47:00,
2013-01-25 02:02:00,-0.9,-9.0,30.32,WNW,301,5.0,16.0,68,0.00,,,0.00,weatherlink.com 1.10,2013-01-25 07:02:00,
2013-01-25 02:16:00,-0.8,-9.0,30.32,West,274,4.0,18.0,68,0.00,,,0.00,weatherlink.com 1.10,2013-01-25 07:16:00,
2013-01-25 02:31:00,-0.9,-9.0,30.32,WNW,287,5.0,12.0,69,0.00,,,0.00,weatherlink.com 1.10,2013-01-25 07:31:00,
2013-01-25 02:46:00,-1.1,-9.0,30.31,SSW,210,3.0,21.0,69,0.00,,,0.00,weatherlink.com 1.10,2013-01-25 07:46:00,
2013-01-25 03:02:00,-1.0,-9.0,30.31,NW,312,3.0,17.0,69,0.00,,,0.00,weatherlink.com 1.10,2013-01-25 08:02:00,
2013-01-25 03:17:00,-1.1,-9.0,30.31,NW,305,7.0,19.0,68,0.00,,,0.00,weatherlink.com 1.10,2013-01-25 08:17:00,
2013-01-25 03:32:00,-1.2,-9.0,30.31,WNW,284,2.0,14.0,68,0.00,,,0.00,weatherlink.com 1.10,2013-01-25 08:32:00,
2013-01-25 03:47:00,-1.6,-10.0,30.31,West,277,5.0,15.0,69,0.00,,,0.00,weatherlink.com 1.10,2013-01-25 08:47:00,
2013-01-25 04:02:00,-1.8,-9.0,30.30,West,271,9.0,16.0,70,0.00,,,0.00,weatherlink.com 1.10,2013-01-25 09:02:00,
2013-01-25 04:17:00,-1.8,-10.0,30.30,WNW,293,6.0,13.0,69,0.00,,,0.00,weatherlink.com 1.10,2013-01-25 09:17:00,
2013-01-25 04:32:00,-1.9,-10.0,30.31,West,270,2.0,17.0,69,0.00,,,0.00,weatherlink.com 1.10,2013-01-25 09:32:00,
2013-01-25 04:47:00,-1.9,-10.0,30.31,West,259,9.0,15.0,69,0.00,,,0.00,weatherlink.com 1.10,2013-01-25 09:47:00,
2013-01-25 05:02:00,-2.0,-10.0,30.32,West,280,4.0,12.0,69,0.00,,,0.00,weatherlink.com 1.10,2013-01-25 10:02:00,
2013-01-25 05:18:00,-2.3,-10.0,30.31,WNW,283,3.0,10.0,70,0.00,,,0.00,weatherlink.com 1.10,2013-01-25 10:18:00,
2013-01-25 05:32:00,-2.5,-10.0,30.32,NW,312,2.0,8.0,70,0.00,,,0.00,weatherlink.com 1.10,2013-01-25 10:32:00,
2013-01-25 05:47:00,-2.7,-10.0,30.32,SW,225,1.0,7.0,70,0.00,,,0.00,weatherlink.com 1.10,2013-01-25 10:47:00,
2013-01-25 06:02:00,-2.9,-10.0,30.33,WNW,298,3.0,8.0,71,0.00,,,0.00,weatherlink.com 1.10,2013-01-25 11:02:00,
2013-01-25 06:17:00,-3.0,-10.0,30.33,WNW,301,5.0,9.0,71,0.00,,,0.00,weatherlink.com 1.10,2013-01-25 11:17:00,
2013-01-25 06:33:00,-3.1,-10.0,30.33,WNW,291,4.0,8.0,71,0.00,,,0.00,weatherlink.com 1.10,2013-01-25 11:33:00,
2013-01-25 06:48:00,-3.0,-10.0,30.34,West,274,3.0,8.0,71,0.00,,,0.00,weatherlink.com 1.10,2013-01-25 11:48:00,
2013-01-25 07:03:00,-3.2,-10.0,30.34,WNW,285,3.0,8.0,72,0.00,,,0.00,weatherlink.com 1.10,2013-01-25 12:03:00,
2013-01-25 07:18:00,-3.3,-10.0,30.34,WNW,288,4.0,9.0,72,0.00,,,0.00,weatherlink.com 1.10,2013-01-25 12:18:00,
2013-01-25 07:33:00,-3.0,-10.0,30.34,West,276,5.0,10.0,71,0.00,,,0.00,weatherlink.com 1.10,2013-01-25 12:33:00,
2013-01-25 07:48:00,-2.9,-10.0,30.34,West,281,9.0,11.0,71,0.00,,,0.00,weatherlink.com 1.10,2013-01-25 12:48:00,
2013-01-25 08:03:00,-2.8,-10.0,30.35,WNW,284,5.0,14.0,71,0.00,,,0.00,weatherlink.com 1.10,2013-01-25 13:03:00,
2013-01-25 08:18:00,-2.5,-10.0,30.35,West,277,6.0,16.0,70,0.00,,,0.00,weatherlink.com 1.10,2013-01-25 13:18:00,
2013-01-25 08:33:00,-2.2,-10.0,30.34,WNW,288,4.0,14.0,70,0.00,,,0.00,weatherlink.com 1.10,2013-01-25 13:33:00,
2013-01-25 08:48:00,-2.1,-10.0,30.34,West,278,4.0,14.0,70,0.00,,,0.00,weatherlink.com 1.10,2013-01-25 13:48:00,
2013-01-25 09:03:00,-1.6,-10.0,30.35,WNW,291,5.0,14.0,69,0.00,,,0.00,weatherlink.com 1.10,2013-01-25 14:03:00,
2013-01-25 09:19:00,-0.9,-9.0,30.35,WNW,298,3.0,14.0,67,0.00,,,0.00,weatherlink.com 1.10,2013-01-25 14:19:00,
2013-01-25 09:34:00,-0.2,-9.0,30.34,WNW,298,8.0,13.0,66,0.00,,,0.00,weatherlink.com 1.10,2013-01-25 14:34:00,
2013-01-25 09:49:00,0.6,-9.0,30.34,WSW,246,3.0,13.0,64,0.00,,,0.00,weatherlink.com 1.10,2013-01-25 14:49:00,
2013-01-25 10:04:00,1.1,-9.0,30.34,WSW,238,6.0,12.0,63,0.00,,,0.00,weatherlink.com 1.10,2013-01-25 15:04:00,
2013-01-25 10:19:00,1.3,-9.0,30.35,WNW,296,6.0,11.0,62,0.00,,,0.00,weatherlink.com 1.10,2013-01-25 15:19:00,
2013-01-25 10:34:00,1.8,-9.0,30.35,West,269,3.0,10.0,62,0.00,,,0.00,weatherlink.com 1.10,2013-01-25 15:34:00,
2013-01-25 10:49:00,2.9,-9.0,30.34,WNW,295,5.0,13.0,59,0.00,,,0.00,weatherlink.com 1.10,2013-01-25 15:49:00,
2013-01-25 11:04:00,3.9,-9.0,30.33,SW,235,1.0,11.0,56,0.00,,,0.00,weatherlink.com 1.10,2013-01-25 16:04:00,
2013-01-25 11:19:00,4.6,-8.0,30.32,WSW,257,3.0,9.0,56,0.00,,,0.00,weatherlink.com 1.10,2013-01-25 16:19:00,
2013-01-25 11:34:00,5.7,-8.0,30.32,West,278,5.0,7.0,54,0.00,,,0.00,weatherlink.com 1.10,2013-01-25 16:34:00,
2013-01-25 11:49:00,6.3,-8.0,30.31,WNW,298,3.0,8.0,52,0.00,,,0.00,weatherlink.com 1.10,2013-01-25 16:49:00,
2013-01-25 12:19:00,7.5,-7.0,30.30,West,278,2.0,10.0,52,0.00,,,0.00,weatherlink.com 1.10,2013-01-25 17:19:00,
2013-01-25 12:34:00,8.0,-8.0,30.29,WNW,284,3.0,11.0,49,0.00,,,0.00,weatherlink.com 1.10,2013-01-25 17:34:00,
2013-01-25 12:49:00,9.2,-7.0,30.29,WNW,289,2.0,10.0,48,0.00,,,0.00,weatherlink.com 1.10,2013-01-25 17:49:00,
2013-01-25 13:04:00,9.5,-7.0,30.28,WSW,239,4.0,9.0,47,0.00,,,0.00,weatherlink.com 1.10,2013-01-25 18:04:00,
2013-01-25 13:20:00,9.5,-8.0,30.27,West,278,3.0,7.0,46,0.00,,,0.00,weatherlink.com 1.10,2013-01-25 18:20:00,
2013-01-25 13:35:00,9.7,-7.0,30.26,SE,142,1.0,7.0,46,0.00,,,0.00,weatherlink.com 1.10,2013-01-25 18:35:00,
2013-01-25 13:50:00,10.2,-7.0,30.25,West,272,1.0,7.0,45,0.00,,,0.00,weatherlink.com 1.10,2013-01-25 18:50:00,
2013-01-25 14:05:00,10.9,-7.0,30.25,WNW,285,5.0,7.0,44,0.00,,,0.00,weatherlink.com 1.10,2013-01-25 19:05:00,
2013-01-25 14:20:00,11.2,-7.0,30.25,WNW,284,1.0,6.0,43,0.00,,,0.00,weatherlink.com 1.10,2013-01-25 19:20:00,
2013-01-25 14:35:00,10.8,-7.0,30.25,NNW,342,2.0,7.0,44,0.00,,,0.00,weatherlink.com 1.10,2013-01-25 19:35:00,
2013-01-25 14:50:00,10.7,-7.0,30.24,West,274,4.0,5.0,45,0.00,,,0.00,weatherlink.com 1.10,2013-01-25 19:50:00,
2013-01-25 15:05:00,10.7,-7.0,30.24,WNW,284,2.0,5.0,45,0.00,,,0.00,weatherlink.com 1.10,2013-01-25 20:05:00,
2013-01-25 15:20:00,10.7,-8.0,30.23,West,259,2.0,7.0,43,0.00,,,0.00,weatherlink.com 1.10,2013-01-25 20:20:00,
2013-01-25 15:36:00,10.9,-8.0,30.23,West,273,1.0,7.0,43,0.00,,,0.00,weatherlink.com 1.10,2013-01-25 20:36:00,
2013-01-25 15:50:00,10.9,-7.0,30.23,WNW,284,3.0,7.0,44,0.00,,,0.00,weatherlink.com 1.10,2013-01-25 20:50:00,
2013-01-25 16:05:00,10.9,-7.0,30.23,NW,309,6.0,7.0,44,0.00,,,0.00,weatherlink.com 1.10,2013-01-25 21:05:00,
2013-01-25 16:20:00,10.6,-7.0,30.22,WSW,252,6.0,6.0,45,0.00,,,0.00,weatherlink.com 1.10,2013-01-25 21:20:00,
2013-01-25 16:36:00,10.3,-7.0,30.23,SW,226,2.0,8.0,46,0.00,,,0.00,weatherlink.com 1.10,2013-01-25 21:36:00,
2013-01-25 16:51:00,10.1,-6.0,30.23,SSW,197,1.0,5.0,48,0.00,,,0.00,weatherlink.com 1.10,2013-01-25 21:51:00,
2013-01-25 17:06:00,10.0,-7.0,30.23,WNW,299,3.0,6.0,47,0.00,,,0.00,weatherlink.com 1.10,2013-01-25 22:06:00,
2013-01-25 17:21:00,9.8,-7.0,30.22,SW,231,1.0,5.0,46,0.00,,,0.00,weatherlink.com 1.10,2013-01-25 22:21:00,
2013-01-25 17:36:00,9.7,-7.0,30.21,West,276,3.0,7.0,46,0.00,,,0.00,weatherlink.com 1.10,2013-01-25 22:36:00,
2013-01-25 17:51:00,9.5,-7.0,30.21,WNW,288,2.0,6.0,47,0.00,,,0.00,weatherlink.com 1.10,2013-01-25 22:51:00,
2013-01-25 18:06:00,9.4,-7.0,30.21,West,276,1.0,5.0,48,0.00,,,0.00,weatherlink.com 1.10,2013-01-25 23:06:00,
2013-01-25 18:21:00,9.6,-7.0,30.20,NW,318,1.0,5.0,48,0.00,,,0.00,weatherlink.com 1.10,2013-01-25 23:21:00,
2013-01-25 18:36:00,9.5,-6.0,30.20,West,277,1.0,5.0,49,0.00,,,0.00,weatherlink.com 1.10,2013-01-25 23:36:00,
2013-01-25 18:51:00,9.4,-6.0,30.18,NW,325,1.0,4.0,49,0.00,,,0.00,weatherlink.com 1.10,2013-01-25 23:51:00,
2013-01-25 19:06:00,9.4,-6.0,30.18,WNW,288,1.0,3.0,50,0.00,,,0.00,weatherlink.com 1.10,2013-01-26 00:06:00,
2013-01-25 19:21:00,9.4,-6.0,30.18,West,278,0.0,3.0,49,0.00,,,0.00,weatherlink.com 1.10,2013-01-26 00:21:00,
2013-01-25 19:36:00,9.3,-6.0,30.17,West,276,1.0,2.0,51,0.00,,,0.00,weatherlink.com 1.10,2013-01-26 00:36:00,
2013-01-25 19:51:00,9.2,-6.0,30.16,West,269,1.0,2.0,51,0.00,,,0.00,weatherlink.com 1.10,2013-01-26 00:51:00,
2013-01-25 20:07:00,9.2,-6.0,30.16,WNW,283,1.0,3.0,51,0.00,,,0.00,weatherlink.com 1.10,2013-01-26 01:07:00,
2013-01-25 20:22:00,9.4,-6.0,30.16,West,277,3.0,3.0,51,0.00,,,0.00,weatherlink.com 1.10,2013-01-26 01:22:00,
2013-01-25 20:37:00,9.4,-5.0,30.16,NW,308,2.0,5.0,52,0.00,,,0.00,weatherlink.com 1.10,2013-01-26 01:37:00,
2013-01-25 20:52:00,9.4,-4.0,30.16,WSW,249,2.0,3.0,54,0.00,,,0.00,weatherlink.com 1.10,2013-01-26 01:52:00,
2013-01-25 21:07:00,9.3,-4.0,30.15,WNW,291,2.0,6.0,54,0.00,,,0.00,weatherlink.com 1.10,2013-01-26 02:07:00,
2013-01-25 21:22:00,9.2,-4.0,30.14,West,281,2.0,4.0,55,0.00,,,0.00,weatherlink.com 1.10,2013-01-26 02:22:00,
2013-01-25 21:37:00,9.2,-4.0,30.14,NW,310,1.0,4.0,55,0.00,,,0.00,weatherlink.com 1.10,2013-01-26 02:37:00,
2013-01-25 21:52:00,9.0,-4.0,30.13,West,276,2.0,5.0,57,0.00,,,0.00,weatherlink.com 1.10,2013-01-26 02:52:00,
2013-01-25 22:07:00,9.0,-4.0,30.13,WSW,257,2.0,7.0,57,0.00,,,0.00,weatherlink.com 1.10,2013-01-26 03:07:00,
2013-01-25 22:23:00,8.7,-2.0,30.13,West,262,1.0,8.0,63,0.00,,,0.00,weatherlink.com 1.10,2013-01-26 03:23:00,
2013-01-25 22:37:00,8.1,1.0,30.13,West,281,2.0,5.0,71,0.00,,,0.00,weatherlink.com 1.10,2013-01-26 03:37:00,
2013-01-25 22:52:00,7.8,2.0,30.13,WNW,288,3.0,5.0,76,0.00,,,0.00,weatherlink.com 1.10,2013-01-26 03:52:00,
2013-01-25 23:07:00,7.5,3.0,30.13,WNW,293,2.0,5.0,80,0.00,,,0.00,weatherlink.com 1.10,2013-01-26 04:07:00,
2013-01-25 23:23:00,7.1,2.0,30.13,WNW,301,4.0,7.0,81,0.00,,,0.00,weatherlink.com 1.10,2013-01-26 04:23:00,
2013-01-25 23:38:00,6.8,3.0,30.12,WNW,284,3.0,6.0,83,0.00,,,0.00,weatherlink.com 1.10,2013-01-26 04:38:00,
2013-01-25 23:53:00,6.5,3.0,30.12,NNW,339,3.0,7.0,84,0.00,,,0.00,weatherlink.com 1.10,2013-01-26 04:53:00,